Weather History for Fort Leonard Wood, MO

Change the Weather History Date:

Tuesday, November 30, 2010

  Actual Average Record
Temperature  
Mean Temperature 30 °F -  
Max Temperature 35 °F 49 °F 102 °F (2000)
Min Temperature 25 °F 35 °F 17 °F (2005)
Degree Days  
Heating Degree Days 34    
Moisture  
Dew Point 20 °F    
Average Humidity 68    
Maximum Humidity 79    
Minimum Humidity 60    
Precipitation  
Precipitation 0.00 in - - ()
Sea Level Pressure  
Sea Level Pressure 29.99 in    
Wind  
Wind Speed 11 mph (West)    
Max Wind Speed 17 mph    
Max Gust Speed 26 mph    
Visibility 10 miles    
Events      
Averages and records for this station are not official NWS values.
T = Trace of Precipitation, MM = Missing Value Source: NWS Daily Summary

Daily Weather History Graph

Daily Weather History Graph

Search for Another Location

Airport:

Trip Planner

Search our weather history database for the weather conditions in past years. The results will help you decide how hot, cold, wet, or windy it might be!

Date:

Astronomy

Nov. 30, 2010 Rise Set
Actual Time 7:04 AM CST 4:50 PM CST
Civil Twilight 6:35 AM CST 5:19 PM CST
Nautical Twilight 6:02 AM CST 5:51 PM CST
Astronomical Twilight 5:31 AM CST 6:23 PM CST
Moon 1:25 AM CST (11/30) 1:16 PM CST (11/30)
Length of Visible Light 10h 43m
Length of Day
9h 46m
Waning Crescent, 29% of the Moon is Illuminated
Nov 30
Waning Crescent
Dec 5
New
Dec 13
First Quarter
Dec 21
Full
Dec 27
Last Quarter

Hourly Weather History & Observations

Time (CST) Temp. Windchill Dew Point Humidity Pressure Visibility Wind Dir Wind Speed Gust Speed Precip Events Conditions
12:55 AM 35.2 °F 28.1 °F 29.3 °F 79% 29.82 in 10.0 mi West 9.2 mph 20.7 mph N/A   Overcast
1:55 AM 34.3 °F 25.9 °F 27.5 °F 76% 29.84 in 10.0 mi West 11.5 mph 18.4 mph N/A   Overcast
2:55 AM 33.1 °F 23.4 °F 26.4 °F 77% 29.84 in 10.0 mi West 13.8 mph 24.2 mph N/A   Overcast
3:55 AM 31.8 °F 21.8 °F 23.5 °F 71% 29.86 in 10.0 mi West 13.8 mph 24.2 mph N/A   Overcast
4:55 AM 31.1 °F 22.4 °F 22.8 °F 71% 29.87 in 10.0 mi West 10.4 mph 18.4 mph N/A   Overcast
5:55 AM 30.7 °F 23.3 °F 23.2 °F 74% 29.91 in 10.0 mi West 8.1 mph 16.1 mph N/A   Overcast
6:55 AM 29.8 °F 22.2 °F 21.2 °F 70% 29.91 in 10.0 mi West 8.1 mph 21.9 mph N/A   Overcast
7:55 AM 29.1 °F 19.4 °F 21.2 °F 72% 29.94 in 10.0 mi West 11.5 mph 19.6 mph N/A   Overcast
8:27 AM 28.4 °F 18.5 °F 21.2 °F 74% 29.95 in 10.0 mi West 11.5 mph 17.3 mph N/A   Overcast
8:55 AM 28.9 °F 19.2 °F 20.1 °F 70% 29.98 in 10.0 mi West 11.5 mph 18.4 mph N/A   Overcast
9:55 AM 28.8 °F 16.6 °F 18.5 °F 66% 29.99 in 7.0 mi West 17.3 mph 24.2 mph N/A   Overcast
10:55 AM 29.7 °F 20.1 °F 18.7 °F 64% 30.00 in 10.0 mi West 11.5 mph 20.7 mph N/A   Overcast
11:08 AM 30.2 °F 19.8 °F 19.4 °F 64% 30.00 in 10.0 mi West 13.8 mph 26.5 mph N/A   Overcast
11:11 AM 30.2 °F 21.3 °F 19.4 °F 64% 30.00 in 10.0 mi West 10.4 mph 21.9 mph N/A   Overcast
11:32 AM 30.2 °F 19.3 °F 19.4 °F 64% 29.99 in 10.0 mi West 15.0 mph 24.2 mph N/A   Overcast
11:34 AM 30.2 °F 19.8 °F 19.4 °F 64% 29.99 in 10.0 mi West 13.8 mph 24.2 mph N/A   Overcast
11:55 AM 30.2 °F 20.2 °F 18.9 °F 63% 29.99 in 10.0 mi West 12.7 mph 20.7 mph N/A   Overcast
12:55 PM 30.7 °F 20.4 °F 19.2 °F 62% 29.99 in 10.0 mi West 13.8 mph 24.2 mph N/A   Overcast
1:55 PM 30.9 °F 20.7 °F 18.7 °F 61% 29.99 in 10.0 mi West 13.8 mph 21.9 mph N/A   Overcast
2:26 PM 30.2 °F 18.9 °F 19.4 °F 64% 30.00 in 10.0 mi West 16.1 mph - N/A   Overcast
2:55 PM 30.4 °F 21.0 °F 18.9 °F 62% 30.01 in 10.0 mi WNW 11.5 mph 20.7 mph N/A   Overcast
3:04 PM 30.2 °F 21.9 °F 19.4 °F 64% 30.02 in 10.0 mi West 9.2 mph - N/A   Overcast
3:55 PM 30.4 °F 20.0 °F 17.8 °F 60% 30.04 in 10.0 mi WNW 13.8 mph - N/A   Overcast
4:55 PM 30.4 °F 21.0 °F 19.6 °F 64% 30.05 in 10.0 mi West 11.5 mph - N/A   Overcast
5:55 PM 30.7 °F 23.3 °F 20.7 °F 66% 30.07 in 10.0 mi West 8.1 mph - N/A   Overcast
6:55 PM 29.7 °F 22.0 °F 20.5 °F 69% 30.08 in 10.0 mi West 8.1 mph - N/A   Scattered Clouds
7:55 PM 27.1 °F 23.2 °F 20.3 °F 75% 30.08 in 10.0 mi WSW 3.5 mph - N/A   Clear
8:55 PM 26.6 °F 19.1 °F 19.4 °F 74% 30.07 in 10.0 mi West 6.9 mph - N/A   Clear
9:55 PM 27.3 °F 19.9 °F 16.7 °F 64% 30.08 in 10.0 mi West 6.9 mph - N/A   Clear
10:55 PM 26.8 °F 19.3 °F 15.4 °F 62% 30.09 in 10.0 mi West 6.9 mph - N/A   Clear
11:55 PM 25.7 °F 18.0 °F 15.1 °F 64% 30.09 in 10.0 mi West 6.9 mph - N/A   Clear